Regional Weather Roundup
Issued by NWS Bismarck, ND

Home | Current Version | Previous Version | Text Only | Print | Product List | Glossary On
Versions: 1 2 3 4 5 6 7 8 9 10 11 12 13 14 15 16 17 18 19 20 21 22 23 24 25 26 27 28 29 30 31 32 33 34 35 36 37 38 39 40 41 42 43 44 45 46 47 48 49 50
303
ASUS43 KBIS 111610
RWRBIS

NWR BROADCAST TEXT
NATIONAL WEATHER SERVICE BISMARCK ND
1000 AM CST THU FEB 11 2016

NOTE: "FAIR" INDICATES FEW OR NO CLOUDS BELOW 12,000 FEET WITH NO
SIGNIFICANT WEATHER AND/OR OBSTRUCTIONS TO VISIBILITY.


CITY           SKY/WX    TMP DP  RH WIND       PRES   REMARKS
WILLISTON      LGT SNOW  23  18  81 NE7       30.11R VSB 3/4 WCI  15
MINOT          CLOUDY    16   7  67 NE3       30.14S
MINOT AFB      CLOUDY    13  10  88 E3        30.15R
BISMARCK       LGT SNOW  21  15  78 E6        30.13R WCI  13
DICKINSON      LGT SNOW  22  20  92 E9        30.00R VSB 3/4 WCI  12
GARRISON         N/A     16  12  84 E6        30.11R WCI   7
HETTINGER ARPT LGT SNOW  30  28  92 SE6       30.01S FOG
JAMESTOWN      CLOUDY     9   6  88 S6        30.16S FOG     WCI  -1
BEACH          LGT SNOW  28  28 100 E7        30.02R
CARRINGTON     CLOUDY    10  10 100 SE5       30.18R WCI   2
HAZEN          LGT SNOW  19  16  86 NE6       30.13R WCI  11
LINTON         LGT SNOW  18  18 100 SE6       30.14R WCI   9
MANDAN         LGT SNOW  18  16  93 E6        30.11S WCI   9
OAKES          CLOUDY    10   7  85 SE3       30.20S
RUGBY          FLURRIES  10   7  85 E5        30.17S WCI   2
STANLEY        FLURRIES  16  14  93 E6        30.11R WCI   7
TIOGA          LGT SNOW  16  16 100 E9        30.15R WCI   4
WATFORD CITY   LGT SNOW  21  19  93 E8        30.09R WCI  12
$$

CITY           SKY/WX    TMP DP  RH WIND       PRES   REMARKS
GRAND FORKS    CLOUDY     9   1  70 S9        30.26S WCI  -4
GRAND FORKS AF FLURRIES   9   1  72 S7        30.25S WCI  -3
DEVILS LAKE    LGT SNOW   9   5  84 CALM      30.19R FOG
FARGO          CLOUDY     9  -1  64 CALM      30.26S
CAVALIER       LGT SNOW   9   5  85 SW5       30.25R WCI   0
GRAFTON        CLOUDY     9   3  78 S7        30.27S WCI  -3
GWINNER        CLOUDY    10   7  85 E5        30.21S WCI   2
LANGDON        LGT SNOW   9   5  85 W6        30.17R WCI  -1
ROLLA          FLURRIES   9   5  85 N5        30.16R WCI   0
WALHALLA       FAIR      10   9  92 NW5       30.24R WCI   2
$$

CITY           SKY/WX    TMP DP  RH WIND       PRES   REMARKS
ABERDEEN       LGT SNOW  18  13  80 S9        30.18F WCI   7
MOBRIDGE       LGT SNOW  23  20  88 S9        30.08R FOG     WCI  13
BUFFALO          N/A     35  29  78 SW6       29.90R
RAPID CITY     CLOUDY    29  28  96 CALM      30.01S
GLASGOW        LGT SNOW  28  25  88 E7        30.08R FOG
SIDNEY         CLOUDY    25  21  86 NE13      30.07R VSB 3/4 WCI  13
WOLF POINT     LGT SNOW  29  23  78 NE10      30.10R VSB 3/4 WCI  20
GLENDIVE       CLOUDY    28  27  93 N8        30.04R
MILES CITY     CLOUDY    40  31  70 NW6       30.03R
BAKER          CLOUDY    35  29  78 NW10      29.99R
$$

CITY           SKY/WX    TMP DP  RH WIND       PRES   REMARKS
BILLINGS       CLOUDY    52  25  35 NW26G39   30.13R
GREAT FALLS    CLOUDY    43  27  53 SW10      30.14R
REGINA         FLURRIES  16  12  86 N3        30.18R
ESTEVAN        FLURRIES  14  10  85 E6        30.15R WCI   5
$$





USA.gov is the U.S. government's official web portal to all federal, state and local government web resources and services.